Location: Unspecified
(0.0000°N, 0.0000°E)
Time: 17:30:18
(UTC+00:00)

COSMOS 2251 DEB - Pass Details

Date: 20 February 2026
Orbit: 744 x 1394 km, 73.9° (Epoch: 2 March)

Event Time Altitude Azimuth Distance (km) Brightness Sun altitude
Exits shadow 02:31:49 18° 124° (SE) 2,801 ? -54.0°
Drops below altitude 10° 02:34:13 10° 136° (SE) 3,427 ? -53.4°
Sets 02:37:36 0° 146° (SSE) 4,438 ? -52.6°
